Other Public Products
Issued by NWS Charleston, SC

Current Version | Previous Version | Text Only | Print | Product List | Glossary Off
Versions: 1 2 3 4 5 6 7 8 9 10 11 12 13 14 15 16 17 18 19 20 21 22 23 24 25 26 27 28 29 30 31 32 33 34 35 36 37 38 39 40 41 42 43 44 45 46 47 48 49 50
000 FPUS82 KCHS 201712 OPUCHS TEST...KCHS/KSAV Gateway Observations...TEST National Weather Service Charleston SC 100 PM EDT THU JUL 20 2017 NOTE: "fair" indicates few or no clouds below 12,000 feet with no significant weather and/or obstructions to visibility. SCZ050-WAZ558-NCZ071-TXZ119-213-PAZ071-DCZ001-FLZ074-172-MI076- NYZ176-178-MAZ016-IL014-TNZ027-NJZ106-GAZ044-MD014-201800- ...Gateway Observations for Charleston International... CITY SKY/WX TMP DP RH WIND PRES REMARKS Chas Airport MOSUNNY 88 74 63 W3 30.08F HX 96 Seattle PTSUNNY 64 54 69 S14 30.13R Charlotte MOSUNNY 92 71 50 N6 30.10F HX 98 Dallas DFW MOSUNNY 95 73 48 S9 30.10F HX 104 Dallas Love MOSUNNY 94 71 47 S8 30.11F HX 101 Philladelphia PTSUNNY 93 68 43 W12 29.97F HX 97 Wash National MOSUNNY 95 70 44 VRB7 30.00F HX 101 Baltimore PTSUNNY 95 69 42 NW13 29.98F HX 100 Miami PTSUNNY 88 76 67 SE9 30.10F THUNDER HX 99 Detroit CLOUDY 85 69 58 NW8 29.99R Newark PTSUNNY 95 67 39 NW15 29.93F HX 99 Laguardia PTSUNNY 93 67 42 NW7 29.93F HX 96 J F K PTSUNNY 93 74 53 S13 29.94F HX 103 Boston Logan PTSUNNY 88 66 48 W9G18 29.90F HX 90 Ft. Lauderdale MOSUNNY 90 76 63 SE8 30.08F HX 101 Chicago O`Hare PTSUNNY 83 71 67 SW15G21 29.95F Chicago Midway PTSUNNY 84 72 67 SW15G26 29.95F Houston Bush MOSUNNY 91 73 55 NW7 30.12F HX 99 Houston Hobby MOSUNNY 93 72 50 VRB6 30.11F HX 101 Nashville PTSUNNY 93 71 48 NW5 30.14S HX 100 Atlanta MOSUNNY 90 68 48 N14G21 30.14S HX 94 $$ GAZ044-118-TXZ119-213-NCZ071-DCZ001-MDZ014-506-PAZ021-071-NJZ106- NYZ176-178-MAZ106-OHZ011-021-055-MIZ076-KYZ091-ILZ014-INZ047- MNZ060-ONZ431-201800- ...Gateway Observations for Savannah International... CITY SKY/WX TMP DP RH WIND PRES REMARKS Savannah Arpt MOSUNNY 91 80 70 W5 30.09F HX 109 Atlanta MOSUNNY 90 68 48 N14G21 30.14S HX 94 Charlotte MOSUNNY 92 71 50 N6 30.10F HX 98 Dallas DFW MOSUNNY 95 73 48 S9 30.10F HX 104 Houston Bush MOSUNNY 91 73 55 NW7 30.12F HX 99 Wash National MOSUNNY 95 70 44 VRB7 30.00F HX 101 Wash Dulles PTSUNNY 91 70 49 W7 30.01F HX 96 Baltimore PTSUNNY 95 69 42 NW13 29.98F HX 100 Philadelphia PTSUNNY 93 68 43 W12 29.97F HX 97 Newark PTSUNNY 95 67 39 NW15 29.93F HX 99 Laguardia PTSUNNY 93 67 42 NW7 29.93F HX 96 J F K PTSUNNY 93 74 53 S13 29.94F HX 103 Boston PTSUNNY 88 66 48 W9G18 29.90F HX 90 Pittsburg PTSUNNY 86 65 49 SW13 30.05F Akron MOSUNNY 86 70 58 SW15 30.03 HX 90 Cleveland PTSUNNY 85 71 63 NW18 30.02S HX 90 Cincinnati CLOUDY 86 76 71 W12 30.11F HX 96 Columbus CLOUDY 86 73 64 SW9 30.06F HX 93 Detroit CLOUDY 85 69 58 NW8 29.99R Chicago O`Hare PTSUNNY 83 71 67 SW15G21 29.95F Minneapolis CLOUDY 81 69 67 VRB3 30.02F Indianapolis CLOUDY 78 73 84 VRB5 30.07F Toronto Canada PTSUNNY 63 61 94 E7 29.98F $$

USA.gov is the U.S. government's official web portal to all federal, state and local government web resources and services.